| time (UTC) | temp F | wind direction | speed MPH | gust MPH | rain 1hr in | rain 24hr in | rain mn in | humidity % | barometer mb |
| 20260903003501 | 73 | 229 | 0.0 | 0.0 | 0.00 | 0.00 | 0.00 | 99 | 983.3 |
| 20260903002955 | 73 | 229 | 0.0 | 0.0 | 0.00 | 0.00 | 0.00 | 99 | 983.0 |
| 20260903002456 | 73 | 229 | 0.0 | 0.0 | 0.00 | 0.00 | 0.00 | 98 | 983.0 |
| 20260903001955 | 74 | 229 | 0.0 | 0.0 | 0.00 | 0.00 | 0.00 | 98 | 983.2 |
| 20260903001450 | 74 | 229 | 0.0 | 0.0 | 0.00 | 0.00 | 0.00 | 97 | 983.1 |
| 20260903000949 | 74 | 229 | 0.0 | 0.0 | 0.00 | 0.00 | 0.00 | 97 | 982.8 |
| 20260903000446 | 74 | 229 | 0.0 | 0.0 | 0.00 | 0.00 | 0.00 | 96 | 982.7 |
| 20260902235943 | 75 | 229 | 0.0 | 0.0 | 0.00 | 0.00 | 0.00 | 97 | 982.8 |
| 20260902235438 | 75 | 229 | 0.0 | 0.0 | 0.00 | 0.00 | 0.00 | 96 | 982.6 |
| 20260902234938 | 76 | 229 | 0.0 | 0.0 | 0.00 | 0.00 | 0.00 | 95 | 982.8 |
| 20260902234433 | 76 | 229 | 0.0 | 0.0 | 0.00 | 0.00 | 0.00 | 94 | 982.7 |
| 20260902233932 | 76 | 229 | 0.0 | 0.0 | 0.00 | 0.00 | 0.00 | 94 | 982.9 |
| 20260902233426 | 77 | 229 | 0.0 | 0.0 | 0.00 | 0.00 | 0.00 | 93 | 982.6 |
| 20260902232926 | 77 | 229 | 0.0 | 0.0 | 0.00 | 0.00 | 0.00 | 91 | 982.7 |
| 20260902232421 | 77 | 229 | 0.0 | 0.0 | 0.00 | 0.00 | 0.00 | 92 | 982.6 |
| 20260902231920 | 78 | 229 | 0.0 | 0.0 | 0.00 | 0.00 | 0.00 | 91 | 982.8 |
| 20260902231415 | 78 | 229 | 0.0 | 0.0 | 0.00 | 0.00 | 0.00 | 91 | 982.7 |
| 20260902230911 | 78 | 229 | 0.0 | 0.0 | 0.00 | 0.00 | 0.00 | 91 | 982.8 |
| 20260902230410 | 78 | 229 | 0.0 | 0.0 | 0.00 | 0.00 | 0.00 | 90 | 982.5 |
| 20260902225909 | 79 | 229 | 0.0 | 1.0 | 0.00 | 0.00 | 0.00 | 90 | 982.7 |
| 20260902225405 | 79 | 229 | 0.0 | 0.0 | 0.00 | 0.00 | 0.00 | 89 | 982.7 |
| 20260902224903 | 80 | 229 | 0.0 | 0.0 | 0.00 | 0.00 | 0.00 | 88 | 982.8 |
| 20260902224357 | 80 | 229 | 0.0 | 0.0 | 0.00 | 0.00 | 0.00 | 88 | 982.8 |
| 20260902223855 | 80 | 229 | 0.0 | 0.0 | 0.00 | 0.00 | 0.00 | 87 | 982.9 |
| 20260902223354 | 80 | 230 | 0.0 | 0.0 | 0.00 | 0.00 | 0.00 | 87 | 982.9 |
| 20260902222849 | 80 | 228 | 1.0 | 1.0 | 0.00 | 0.00 | 0.00 | 86 | 982.8 |
| 20260902222347 | 81 | 229 | 1.0 | 1.0 | 0.00 | 0.00 | 0.00 | 86 | 983.0 |
| 20260902221842 | 81 | 246 | 1.0 | 2.0 | 0.00 | 0.00 | 0.00 | 85 | 982.8 |
| 20260902221341 | 82 | 239 | 1.0 | 2.0 | 0.00 | 0.00 | 0.00 | 84 | 982.8 |
| 20260902220837 | 85 | 252 | 1.0 | 2.0 | 0.00 | 0.00 | 0.00 | 80 | 982.8 |
| 20260902220336 | 85 | 253 | 2.0 | 3.0 | 0.00 | 0.00 | 0.00 | 78 | 982.8 |
| 20260902215832 | 87 | 241 | 2.0 | 2.0 | 0.00 | 0.00 | 0.00 | 77 | 983.0 |
| 20260902215332 | 86 | 201 | 0.0 | 1.0 | 0.00 | 0.00 | 0.00 | 67 | 982.8 |
| 20260902214829 | 85 | 241 | 1.0 | 1.0 | 0.00 | 0.00 | 0.00 | 81 | 982.9 |
| 20260902214327 | 87 | 244 | 2.0 | 2.0 | 0.00 | 0.00 | 0.00 | 79 | 982.8 |
| 20260902213822 | 88 | 244 | 1.0 | 2.0 | 0.00 | 0.00 | 0.00 | 75 | 982.7 |
| 20260902213318 | 87 | 233 | 0.0 | 2.0 | 0.00 | 0.00 | 0.00 | 73 | 982.9 |
| 20260902212816 | 89 | 252 | 1.0 | 1.0 | 0.00 | 0.00 | 0.00 | 73 | 983.0 |
| 20260902212314 | 88 | 220 | 0.0 | 2.0 | 0.00 | 0.00 | 0.00 | 72 | 983.0 |
| 20260902211809 | 89 | 342 | 0.0 | 1.0 | 0.00 | 0.00 | 0.00 | 64 | 983.1 |
| 20260902211306 | 89 | 271 | 1.0 | 2.0 | 0.00 | 0.00 | 0.00 | 69 | 983.1 |
| 20260902210805 | 90 | 213 | 2.0 | 2.0 | 0.00 | 0.00 | 0.00 | 69 | 982.9 |
| 20260902210300 | 90 | 204 | 2.0 | 2.0 | 0.00 | 0.00 | 0.00 | 70 | 983.1 |
| 20260902205758 | 89 | 246 | 1.0 | 1.0 | 0.00 | 0.00 | 0.00 | 71 | 983.0 |
| 20260902205253 | 89 | 118 | 1.0 | 1.0 | 0.00 | 0.00 | 0.00 | 67 | 983.1 |
| 20260902204749 | 91 | 216 | 0.0 | 2.0 | 0.00 | 0.00 | 0.00 | 61 | 983.3 |
| 20260902204244 | 91 | 210 | 0.0 | 2.0 | 0.00 | 0.00 | 0.00 | 60 | 983.3 |
| 20260902203744 | 91 | 80 | 0.0 | 2.0 | 0.00 | 0.00 | 0.00 | 61 | 983.4 |
| 20260902203244 | 91 | 273 | 0.0 | 1.0 | 0.00 | 0.00 | 0.00 | 62 | 983.4 |
| 20260902202739 | 90 | 80 | 1.0 | 3.0 | 0.00 | 0.00 | 0.00 | 62 | 983.3 |
| 20260902202236 | 91 | 249 | 0.0 | 1.0 | 0.00 | 0.00 | 0.00 | 66 | 983.2 |
| 20260902201732 | 91 | 222 | 0.0 | 1.0 | 0.00 | 0.00 | 0.00 | 64 | 983.3 |
| 20260902201231 | 90 | 246 | 0.0 | 1.0 | 0.00 | 0.00 | 0.00 | 62 | 983.4 |
| 20260902200726 | 91 | 133 | 3.0 | 4.0 | 0.00 | 0.00 | 0.00 | 64 | 983.4 |
| 20260902200222 | 92 | 91 | 2.0 | 3.0 | 0.00 | 0.00 | 0.00 | 64 | 983.5 |
| 20260902195718 | 91 | 7 | 1.0 | 2.0 | 0.00 | 0.00 | 0.00 | 62 | 983.4 |
| 20260902195217 | 91 | 308 | 0.0 | 1.0 | 0.00 | 0.00 | 0.00 | 63 | 983.4 |
| 20260902194716 | 89 | 266 | 2.0 | 4.0 | 0.00 | 0.00 | 0.00 | 66 | 983.5 |
| 20260902194211 | 91 | 87 | 2.0 | 3.0 | 0.00 | 0.00 | 0.00 | 63 | 983.5 |
| 20260902193707 | 91 | 229 | 1.0 | 2.0 | 0.00 | 0.00 | 0.00 | 63 | 983.6 |
| 20260902193202 | 91 | 341 | 1.0 | 2.0 | 0.00 | 0.00 | 0.00 | 64 | 983.8 |
| 20260902192701 | 90 | 186 | 1.0 | 2.0 | 0.00 | 0.00 | 0.00 | 63 | 983.7 |
| 20260902192201 | 91 | 249 | 1.0 | 2.0 | 0.00 | 0.00 | 0.00 | 63 | 983.7 |
| 20260902191655 | 90 | 119 | 1.0 | 4.0 | 0.00 | 0.00 | 0.00 | 64 | 983.8 |
| 20260902191155 | 90 | 117 | 3.0 | 4.0 | 0.00 | 0.00 | 0.00 | 65 | 983.7 |
| 20260902190650 | 90 | 101 | 2.0 | 4.0 | 0.00 | 0.00 | 0.00 | 62 | 984.0 |
| 20260902190145 | 90 | 108 | 3.0 | 3.0 | 0.00 | 0.00 | 0.00 | 66 | 983.9 |
| 20260902185641 | 91 | 99 | 3.0 | 3.0 | 0.00 | 0.00 | 0.00 | 66 | 984.0 |
| 20260902185137 | 89 | 201 | 0.0 | 1.0 | 0.00 | 0.00 | 0.00 | 65 | 984.0 |
| 20260902184632 | 90 | 218 | 0.0 | 6.0 | 0.00 | 0.00 | 0.00 | 66 | 984.1 |
| 20260902184128 | 89 | 92 | 2.0 | 3.0 | 0.00 | 0.00 | 0.00 | 66 | 984.0 |
| 20260902183624 | 91 | 131 | 1.0 | 2.0 | 0.00 | 0.00 | 0.00 | 65 | 984.2 |
| 20260902183120 | 91 | 270 | 2.0 | 4.0 | 0.00 | 0.00 | 0.00 | 62 | 984.3 |
| 20260902182615 | 90 | 112 | 0.0 | 3.0 | 0.00 | 0.00 | 0.00 | 68 | 984.1 |
| 20260902182112 | 90 | 237 | 1.0 | 4.0 | 0.00 | 0.00 | 0.00 | 66 | 984.1 |
| 20260902181608 | 89 | 115 | 3.0 | 4.0 | 0.00 | 0.00 | 0.00 | 66 | 984.2 |
| 20260902181107 | 90 | 30 | 0.0 | 3.0 | 0.00 | 0.00 | 0.00 | 68 | 984.1 |
| 20260902180606 | 90 | 311 | 1.0 | 7.0 | 0.00 | 0.00 | 0.00 | 70 | 984.4 |
| 20260902175602 | 91 | 153 | 3.0 | 4.0 | 0.00 | 0.00 | 0.00 | 64 | 984.3 |
| 20260902175058 | 90 | 229 | 2.0 | 3.0 | 0.00 | 0.00 | 0.00 | 66 | 984.3 |
| 20260902174554 | 89 | 62 | 2.0 | 3.0 | 0.00 | 0.00 | 0.00 | 68 | 984.3 |
| 20260902174049 | 89 | 80 | 1.0 | 2.0 | 0.00 | 0.00 | 0.00 | 70 | 984.5 |
| 20260902173544 | 89 | 80 | 1.0 | 3.0 | 0.00 | 0.00 | 0.00 | 70 | 984.6 |
| 20260902173039 | 87 | 190 | 0.0 | 4.0 | 0.00 | 0.00 | 0.00 | 71 | 984.8 |
| 20260902172538 | 87 | 117 | 1.0 | 2.0 | 0.00 | 0.00 | 0.00 | 70 | 984.8 |
| 20260902172034 | 86 | 194 | 2.0 | 2.0 | 0.00 | 0.00 | 0.00 | 73 | 984.8 |
| 20260902171529 | 87 | 158 | 2.0 | 3.0 | 0.00 | 0.00 | 0.00 | 73 | 984.8 |
| 20260902171025 | 87 | 267 | 0.0 | 1.0 | 0.00 | 0.00 | 0.00 | 71 | 984.9 |
| 20260902170520 | 88 | 214 | 1.0 | 4.0 | 0.00 | 0.00 | 0.00 | 69 | 985.0 |
| 20260902170017 | 89 | 352 | 2.0 | 6.0 | 0.00 | 0.00 | 0.00 | 70 | 985.0 |
| 20260902165516 | 88 | 8 | 1.0 | 6.0 | 0.00 | 0.00 | 0.00 | 70 | 984.9 |
| 20260902165015 | 89 | 209 | 2.0 | 4.0 | 0.00 | 0.00 | 0.00 | 69 | 985.1 |
| 20260902164511 | 89 | 68 | 2.0 | 3.0 | 0.00 | 0.00 | 0.00 | 71 | 985.0 |
| 20260902164009 | 88 | 244 | 2.0 | 3.0 | 0.00 | 0.00 | 0.00 | 70 | 985.2 |
| 20260902163506 | 89 | 174 | 3.0 | 3.0 | 0.00 | 0.00 | 0.00 | 68 | 985.3 |
| 20260902163003 | 88 | 115 | 1.0 | 6.0 | 0.00 | 0.00 | 0.00 | 71 | 985.3 |
| 20260902162458 | 88 | 115 | 3.0 | 6.0 | 0.00 | 0.00 | 0.00 | 70 | 985.2 |
| 20260902161958 | 89 | 2 | 1.0 | 6.0 | 0.00 | 0.00 | 0.00 | 71 | 985.4 |
| 20260902161454 | 88 | 244 | 0.0 | 2.0 | 0.00 | 0.00 | 0.00 | 71 | 985.5 |
| 20260902160949 | 88 | 183 | 3.0 | 4.0 | 0.00 | 0.00 | 0.00 | 71 | 985.3 |
| 20260902160445 | 87 | 115 | 2.0 | 6.0 | 0.00 | 0.00 | 0.00 | 71 | 985.4 |
| 20260902155942 | 87 | 101 | 3.0 | 4.0 | 0.00 | 0.00 | 0.00 | 72 | 985.6 |
| 20260902155438 | 87 | 114 | 2.0 | 4.0 | 0.00 | 0.00 | 0.00 | 72 | 985.5 |
| 20260902154932 | 88 | 115 | 3.0 | 6.0 | 0.00 | 0.00 | 0.00 | 73 | 985.6 |
| 20260902154428 | 88 | 122 | 4.0 | 4.0 | 0.00 | 0.00 | 0.00 | 77 | 985.6 |
| 20260902153927 | 89 | 118 | 2.0 | 3.0 | 0.00 | 0.00 | 0.00 | 73 | 985.7 |
| 20260902153426 | 87 | 302 | 2.0 | 2.0 | 0.00 | 0.00 | 0.00 | 75 | 985.7 |
| 20260902152921 | 86 | 129 | 1.0 | 4.0 | 0.00 | 0.00 | 0.00 | 73 | 985.5 |
| 20260902152418 | 87 | 305 | 1.0 | 2.0 | 0.00 | 0.00 | 0.00 | 74 | 985.6 |
| 20260902151913 | 86 | 142 | 0.0 | 3.0 | 0.00 | 0.00 | 0.00 | 79 | 985.7 |
| 20260902151409 | 86 | 120 | 1.0 | 4.0 | 0.00 | 0.00 | 0.00 | 75 | 985.7 |
| 20260902150909 | 86 | 109 | 3.0 | 3.0 | 0.00 | 0.00 | 0.00 | 76 | 985.6 |
| 20260902150405 | 86 | 200 | 4.0 | 4.0 | 0.00 | 0.00 | 0.00 | 73 | 985.6 |
| 20260902145904 | 86 | 104 | 2.0 | 3.0 | 0.00 | 0.00 | 0.00 | 77 | 985.7 |
| 20260902145359 | 87 | 102 | 2.0 | 2.0 | 0.00 | 0.00 | 0.00 | 74 | 985.5 |
| 20260902144854 | 86 | 256 | 0.0 | 1.0 | 0.00 | 0.00 | 0.00 | 77 | 985.6 |
| 20260902144351 | 84 | 110 | 2.0 | 3.0 | 0.00 | 0.00 | 0.00 | 79 | 985.6 |
| 20260902143850 | 84 | 123 | 1.0 | 4.0 | 0.00 | 0.00 | 0.00 | 79 | 985.4 |
| 20260902143345 | 83 | 171 | 1.0 | 3.0 | 0.00 | 0.00 | 0.00 | 82 | 985.7 |
| 20260902142841 | 83 | 80 | 1.0 | 3.0 | 0.00 | 0.00 | 0.00 | 84 | 985.6 |
| 20260902142337 | 83 | 61 | 2.0 | 3.0 | 0.00 | 0.00 | 0.00 | 82 | 985.6 |
| 20260902141832 | 81 | 114 | 1.0 | 3.0 | 0.00 | 0.00 | 0.00 | 84 | 985.2 |
| 20260902141328 | 81 | 100 | 1.0 | 2.0 | 0.00 | 0.00 | 0.00 | 85 | 985.4 |
| 20260902140827 | 81 | 110 | 0.0 | 2.0 | 0.00 | 0.00 | 0.00 | 84 | 985.3 |
| 20260902140322 | 81 | 103 | 1.0 | 3.0 | 0.00 | 0.00 | 0.00 | 84 | 985.3 |
| 20260902135821 | 81 | 90 | 1.0 | 3.0 | 0.00 | 0.00 | 0.00 | 84 | 985.4 |
| 20260902135318 | 81 | 82 | 2.0 | 3.0 | 0.00 | 0.00 | 0.00 | 86 | 985.1 |
| 20260902134816 | 80 | 87 | 1.0 | 2.0 | 0.00 | 0.00 | 0.00 | 87 | 985.2 |
| 20260902134312 | 79 | 67 | 0.0 | 2.0 | 0.00 | 0.00 | 0.00 | 90 | 985.3 |
| 20260902133808 | 78 | 66 | 1.0 | 2.0 | 0.00 | 0.00 | 0.00 | 94 | 985.3 |
| 20260902133307 | 78 | 82 | 2.0 | 2.0 | 0.00 | 0.00 | 0.00 | 91 | 985.3 |
| 20260902132802 | 79 | 88 | 0.0 | 0.0 | 0.00 | 0.00 | 0.00 | 91 | 985.2 |
| 20260902132258 | 78 | 53 | 0.0 | 0.0 | 0.00 | 0.00 | 0.00 | 91 | 985.2 |
| 20260902131753 | 79 | 49 | 0.0 | 0.0 | 0.00 | 0.00 | 0.00 | 90 | 985.3 |
| 20260902131249 | 77 | 43 | 0.0 | 0.0 | 0.00 | 0.00 | 0.00 | 92 | 985.3 |
| 20260902130749 | 77 | 42 | 0.0 | 0.0 | 0.00 | 0.00 | 0.00 | 92 | 985.1 |
| 20260902130245 | 76 | 42 | 0.0 | 0.0 | 0.00 | 0.00 | 0.00 | 92 | 985.2 |
| 20260902125740 | 75 | 42 | 0.0 | 0.0 | 0.00 | 0.00 | 0.00 | 95 | 985.1 |
| 20260902125236 | 75 | 315 | 0.0 | 0.0 | 0.00 | 0.00 | 0.00 | 95 | 985.0 |
| 20260902124732 | 73 | 313 | 0.0 | 0.0 | 0.00 | 0.00 | 0.00 | 97 | 985.0 |
| 20260902124227 | 72 | 309 | 0.0 | 0.0 | 0.00 | 0.00 | 0.00 | 99 | 985.0 |
| 20260902123723 | 71 | 309 | 0.0 | 0.0 | 0.00 | 0.00 | 0.00 | 99 | 985.0 |
| 20260902123219 | 70 | 296 | 0.0 | 0.0 | 0.00 | 0.00 | 0.00 | 99 | 985.1 |
| 20260902122717 | 69 | 250 | 0.0 | 0.0 | 0.00 | 0.00 | 0.00 | 99 | 985.1 |
| 20260902122214 | 69 | 244 | 0.0 | 0.0 | 0.00 | 0.00 | 0.00 | 99 | 985.0 |
| 20260902121713 | 69 | 244 | 0.0 | 0.0 | 0.00 | 0.00 | 0.00 | 99 | 985.1 |
| 20260902121208 | 70 | 245 | 0.0 | 0.0 | 0.00 | 0.00 | 0.00 | 99 | 985.1 |
| 20260902120704 | 69 | 245 | 0.0 | 0.0 | 0.00 | 0.00 | 0.00 | 99 | 985.1 |
| 20260902120201 | 67 | 245 | 0.0 | 0.0 | 0.00 | 0.00 | 0.00 | 99 | 985.2 |
| 20260902115700 | 67 | 245 | 0.0 | 0.0 | 0.00 | 0.00 | 0.00 | 99 | 985.0 |
| 20260902115156 | 67 | 245 | 0.0 | 0.0 | 0.00 | 0.00 | 0.00 | 99 | 985.0 |
| 20260902114652 | 66 | 245 | 0.0 | 0.0 | 0.00 | 0.00 | 0.00 | 99 | 985.0 |
| 20260902114147 | 66 | 245 | 0.0 | 0.0 | 0.00 | 0.00 | 0.00 | 99 | 984.7 |
| 20260902113643 | 66 | 245 | 0.0 | 0.0 | 0.00 | 0.00 | 0.00 | 99 | 984.8 |
| 20260902113138 | 66 | 245 | 0.0 | 0.0 | 0.00 | 0.00 | 0.00 | 99 | 984.9 |
| 20260902112632 | 66 | 245 | 0.0 | 0.0 | 0.00 | 0.00 | 0.00 | 99 | 985.0 |
| 20260902112130 | 66 | 245 | 0.0 | 0.0 | 0.00 | 0.00 | 0.00 | 99 | 984.8 |
| 20260902111625 | 66 | 245 | 0.0 | 0.0 | 0.00 | 0.00 | 0.00 | 99 | 984.9 |
| 20260902111121 | 66 | 245 | 0.0 | 0.0 | 0.00 | 0.00 | 0.00 | 99 | 985.1 |
| 20260902110616 | 66 | 245 | 0.0 | 0.0 | 0.00 | 0.00 | 0.00 | 99 | 984.9 |
| 20260902110113 | 66 | 245 | 0.0 | 0.0 | 0.00 | 0.00 | 0.00 | 99 | 984.9 |
| 20260902105612 | 66 | 245 | 0.0 | 0.0 | 0.00 | 0.00 | 0.00 | 99 | 984.8 |
| 20260902105107 | 66 | 245 | 0.0 | 0.0 | 0.00 | 0.00 | 0.00 | 99 | 984.8 |
| 20260902104602 | 66 | 245 | 0.0 | 0.0 | 0.00 | 0.00 | 0.00 | 99 | 985.0 |
| 20260902104056 | 66 | 245 | 0.0 | 0.0 | 0.00 | 0.00 | 0.00 | 99 | 984.9 |
| 20260902103552 | 66 | 245 | 0.0 | 0.0 | 0.00 | 0.00 | 0.00 | 99 | 985.1 |
| 20260902103047 | 66 | 245 | 0.0 | 0.0 | 0.00 | 0.00 | 0.00 | 99 | 984.9 |
| 20260902102543 | 66 | 245 | 0.0 | 0.0 | 0.00 | 0.00 | 0.00 | 99 | 985.0 |
| 20260902102040 | 66 | 245 | 0.0 | 0.0 | 0.00 | 0.00 | 0.00 | 99 | 984.9 |
| 20260902101535 | 66 | 245 | 0.0 | 0.0 | 0.00 | 0.00 | 0.00 | 99 | 985.0 |
| 20260902101034 | 66 | 245 | 0.0 | 0.0 | 0.00 | 0.00 | 0.00 | 99 | 984.9 |
| 20260902100534 | 66 | 245 | 0.0 | 0.0 | 0.00 | 0.00 | 0.00 | 99 | 984.8 |
| 20260902100034 | 66 | 245 | 0.0 | 0.0 | 0.00 | 0.00 | 0.00 | 99 | 984.8 |
| 20260902095533 | 66 | 245 | 0.0 | 0.0 | 0.00 | 0.00 | 0.00 | 99 | 984.7 |
| 20260902095032 | 66 | 245 | 0.0 | 0.0 | 0.00 | 0.00 | 0.00 | 99 | 984.8 |
| 20260902094528 | 66 | 245 | 0.0 | 0.0 | 0.00 | 0.00 | 0.00 | 99 | 984.8 |
| 20260902094024 | 66 | 245 | 0.0 | 0.0 | 0.00 | 0.00 | 0.00 | 99 | 984.9 |
| 20260902093519 | 66 | 245 | 0.0 | 0.0 | 0.00 | 0.00 | 0.00 | 99 | 984.9 |
| 20260902093018 | 66 | 245 | 0.0 | 0.0 | 0.00 | 0.00 | 0.00 | 99 | 984.8 |
| 20260902092514 | 66 | 245 | 0.0 | 0.0 | 0.00 | 0.00 | 0.00 | 99 | 984.7 |
| 20260902092008 | 67 | 245 | 0.0 | 0.0 | 0.00 | 0.00 | 0.00 | 99 | 984.5 |
| 20260902091504 | 67 | 245 | 0.0 | 0.0 | 0.00 | 0.00 | 0.00 | 99 | 984.6 |
| 20260902091000 | 66 | 245 | 0.0 | 0.0 | 0.00 | 0.00 | 0.00 | 99 | 984.5 |
| 20260902090455 | 66 | 245 | 0.0 | 0.0 | 0.00 | 0.00 | 0.00 | 99 | 984.7 |
| 20260902085954 | 66 | 245 | 0.0 | 0.0 | 0.00 | 0.00 | 0.00 | 99 | 984.5 |
| 20260902085449 | 67 | 245 | 0.0 | 0.0 | 0.00 | 0.00 | 0.00 | 99 | 984.4 |
| 20260902084944 | 67 | 245 | 0.0 | 0.0 | 0.00 | 0.00 | 0.00 | 99 | 984.5 |
| 20260902084441 | 67 | 245 | 0.0 | 0.0 | 0.00 | 0.00 | 0.00 | 99 | 984.5 |
| 20260902083936 | 67 | 245 | 0.0 | 0.0 | 0.00 | 0.00 | 0.00 | 99 | 984.4 |
| 20260902083436 | 67 | 245 | 0.0 | 0.0 | 0.00 | 0.00 | 0.00 | 99 | 984.5 |
| 20260902082930 | 67 | 245 | 0.0 | 0.0 | 0.00 | 0.00 | 0.00 | 99 | 984.2 |
| 20260902082426 | 67 | 245 | 0.0 | 0.0 | 0.00 | 0.00 | 0.00 | 99 | 984.3 |
| 20260902081924 | 67 | 245 | 0.0 | 0.0 | 0.00 | 0.00 | 0.00 | 99 | 984.3 |
| 20260902081420 | 67 | 245 | 0.0 | 0.0 | 0.00 | 0.00 | 0.00 | 99 | 984.2 |
| 20260902080920 | 67 | 245 | 0.0 | 0.0 | 0.00 | 0.00 | 0.00 | 99 | 984.2 |
| 20260902080416 | 67 | 245 | 0.0 | 0.0 | 0.00 | 0.00 | 0.00 | 99 | 984.5 |
| 20260902075915 | 67 | 245 | 0.0 | 0.0 | 0.00 | 0.00 | 0.00 | 99 | 984.4 |
| 20260902075407 | 67 | 245 | 0.0 | 0.0 | 0.00 | 0.00 | 0.00 | 99 | 984.5 |
| 20260902074901 | 67 | 245 | 0.0 | 0.0 | 0.00 | 0.00 | 0.00 | 99 | 984.3 |
| 20260902074357 | 68 | 245 | 0.0 | 0.0 | 0.00 | 0.00 | 0.00 | 99 | 984.2 |
| 20260902073852 | 68 | 245 | 0.0 | 0.0 | 0.00 | 0.00 | 0.00 | 99 | 984.3 |
| 20260902073348 | 68 | 245 | 0.0 | 0.0 | 0.00 | 0.00 | 0.00 | 99 | 984.3 |
| 20260902072844 | 68 | 245 | 0.0 | 0.0 | 0.00 | 0.00 | 0.00 | 99 | 984.3 |
| 20260902072339 | 67 | 245 | 0.0 | 0.0 | 0.00 | 0.00 | 0.00 | 99 | 984.1 |
| 20260902071835 | 68 | 245 | 0.0 | 0.0 | 0.00 | 0.00 | 0.00 | 99 | 984.0 |
| 20260902071330 | 67 | 245 | 0.0 | 0.0 | 0.00 | 0.00 | 0.00 | 99 | 984.2 |
| 20260902070826 | 68 | 245 | 0.0 | 0.0 | 0.00 | 0.00 | 0.00 | 99 | 984.2 |
| 20260902070326 | 68 | 245 | 0.0 | 0.0 | 0.00 | 0.00 | 0.00 | 99 | 984.3 |
| 20260902065825 | 68 | 245 | 0.0 | 0.0 | 0.00 | 0.00 | 0.00 | 99 | 984.2 |
| 20260902065320 | 68 | 245 | 0.0 | 0.0 | 0.00 | 0.00 | 0.00 | 99 | 984.3 |
| 20260902064815 | 68 | 245 | 0.0 | 0.0 | 0.00 | 0.00 | 0.00 | 99 | 984.3 |
| 20260902064312 | 68 | 245 | 0.0 | 0.0 | 0.00 | 0.00 | 0.00 | 99 | 984.3 |
| 20260902063807 | 68 | 245 | 0.0 | 0.0 | 0.00 | 0.00 | 0.00 | 99 | 984.4 |
| 20260902063306 | 68 | 245 | 0.0 | 0.0 | 0.00 | 0.00 | 0.00 | 99 | 984.2 |
| 20260902062801 | 68 | 245 | 0.0 | 0.0 | 0.00 | 0.00 | 0.00 | 99 | 984.3 |
| 20260902062256 | 68 | 245 | 0.0 | 0.0 | 0.00 | 0.00 | 0.00 | 99 | 984.5 |
| 20260902061755 | 69 | 245 | 0.0 | 0.0 | 0.00 | 0.00 | 0.00 | 99 | 984.3 |
| 20260902061250 | 69 | 245 | 0.0 | 0.0 | 0.00 | 0.00 | 0.00 | 99 | 984.4 |
| 20260902060748 | 69 | 245 | 0.0 | 0.0 | 0.00 | 0.00 | 0.00 | 99 | 984.4 |
| 20260902060243 | 69 | 245 | 0.0 | 0.0 | 0.00 | 0.00 | 0.00 | 99 | 984.5 |
| 20260902055738 | 69 | 245 | 0.0 | 0.0 | 0.00 | 0.00 | 0.00 | 99 | 984.3 |
| 20260902055234 | 69 | 245 | 0.0 | 0.0 | 0.00 | 0.00 | 0.00 | 99 | 984.3 |
| 20260902054729 | 69 | 245 | 0.0 | 0.0 | 0.00 | 0.00 | 0.00 | 99 | 984.3 |
| 20260902054225 | 69 | 245 | 0.0 | 0.0 | 0.00 | 0.00 | 0.00 | 99 | 984.3 |
| 20260902053720 | 69 | 245 | 0.0 | 0.0 | 0.00 | 0.00 | 0.00 | 99 | 984.3 |
| 20260902053220 | 69 | 245 | 0.0 | 0.0 | 0.00 | 0.00 | 0.00 | 99 | 984.2 |
| 20260902052719 | 69 | 245 | 0.0 | 0.0 | 0.00 | 0.00 | 0.00 | 99 | 984.3 |
| 20260902052215 | 69 | 245 | 0.0 | 0.0 | 0.00 | 0.00 | 0.00 | 99 | 984.0 |
| 20260902051714 | 69 | 245 | 0.0 | 0.0 | 0.00 | 0.00 | 0.00 | 99 | 984.2 |
| 20260902051209 | 69 | 245 | 0.0 | 0.0 | 0.00 | 0.00 | 0.00 | 99 | 984.2 |
| 20260902050709 | 70 | 245 | 0.0 | 0.0 | 0.00 | 0.00 | 0.00 | 99 | 984.1 |
| 20260902050205 | 70 | 245 | 0.0 | 0.0 | 0.00 | 0.00 | 0.00 | 99 | 983.9 |
| 20260902045704 | 69 | 245 | 0.0 | 0.0 | 0.00 | 0.00 | 0.00 | 99 | 983.8 |
| 20260902045201 | 70 | 245 | 0.0 | 0.0 | 0.00 | 0.00 | 0.00 | 99 | 983.8 |
| 20260902044655 | 69 | 245 | 0.0 | 0.0 | 0.00 | 0.00 | 0.00 | 99 | 984.0 |
| 20260902044152 | 69 | 245 | 0.0 | 0.0 | 0.00 | 0.00 | 0.00 | 99 | 983.8 |
| 20260902043647 | 70 | 245 | 0.0 | 0.0 | 0.00 | 0.00 | 0.00 | 99 | 983.8 |
| 20260902043142 | 69 | 245 | 0.0 | 0.0 | 0.00 | 0.00 | 0.00 | 99 | 984.1 |
| 20260902042641 | 70 | 245 | 0.0 | 0.0 | 0.00 | 0.00 | 0.00 | 99 | 983.9 |
| 20260902042137 | 70 | 245 | 0.0 | 0.0 | 0.00 | 0.00 | 0.00 | 99 | 983.8 |
| 20260902041636 | 70 | 245 | 0.0 | 0.0 | 0.00 | 0.00 | 0.00 | 99 | 983.9 |
| 20260902041131 | 70 | 245 | 0.0 | 0.0 | 0.00 | 0.00 | 0.00 | 99 | 983.7 |
| 20260902040630 | 70 | 245 | 0.0 | 0.0 | 0.00 | 0.00 | 0.00 | 99 | 983.6 |
| 20260902040126 | 70 | 245 | 0.0 | 0.0 | 0.00 | 0.00 | 0.00 | 99 | 983.7 |
| 20260902035624 | 69 | 245 | 0.0 | 0.0 | 0.00 | 0.00 | 0.00 | 99 | 983.6 |
| 20260902035120 | 69 | 245 | 0.0 | 0.0 | 0.00 | 0.00 | 0.00 | 99 | 983.9 |
| 20260902034619 | 70 | 245 | 0.0 | 0.0 | 0.00 | 0.00 | 0.00 | 99 | 983.7 |
| 20260902034118 | 70 | 245 | 0.0 | 0.0 | 0.00 | 0.00 | 0.00 | 99 | 983.7 |
| 20260902033617 | 70 | 245 | 0.0 | 0.0 | 0.00 | 0.00 | 0.00 | 99 | 983.7 |
| 20260902033113 | 70 | 245 | 0.0 | 0.0 | 0.00 | 0.00 | 0.00 | 99 | 983.7 |
| 20260902032611 | 70 | 245 | 0.0 | 0.0 | 0.00 | 0.00 | 0.00 | 99 | 983.8 |
| 20260902032107 | 70 | 245 | 0.0 | 0.0 | 0.00 | 0.00 | 0.00 | 99 | 983.8 |
| 20260902031606 | 70 | 245 | 0.0 | 0.0 | 0.00 | 0.00 | 0.00 | 99 | 984.0 |
| 20260902031103 | 70 | 245 | 0.0 | 0.0 | 0.00 | 0.00 | 0.00 | 99 | 983.9 |
| 20260902030558 | 71 | 245 | 0.0 | 0.0 | 0.00 | 0.00 | 0.00 | 99 | 983.8 |
| 20260902030057 | 71 | 245 | 0.0 | 0.0 | 0.00 | 0.00 | 0.00 | 99 | 983.9 |
| 20260902025551 | 70 | 245 | 0.0 | 0.0 | 0.00 | 0.00 | 0.00 | 99 | 983.9 |
| 20260902025047 | 71 | 245 | 0.0 | 0.0 | 0.00 | 0.00 | 0.00 | 99 | 983.9 |
| 20260902024542 | 71 | 245 | 0.0 | 0.0 | 0.00 | 0.00 | 0.00 | 99 | 983.8 |
| 20260902024042 | 71 | 245 | 0.0 | 0.0 | 0.00 | 0.00 | 0.00 | 99 | 983.9 |
| 20260902023538 | 71 | 245 | 0.0 | 0.0 | 0.00 | 0.00 | 0.00 | 99 | 983.8 |
| 20260902023033 | 72 | 245 | 0.0 | 0.0 | 0.00 | 0.00 | 0.00 | 99 | 984.0 |
| 20260902022533 | 71 | 245 | 0.0 | 0.0 | 0.00 | 0.00 | 0.00 | 99 | 983.8 |
| 20260902022029 | 71 | 245 | 0.0 | 0.0 | 0.00 | 0.00 | 0.00 | 99 | 983.8 |
| 20260902021524 | 71 | 245 | 0.0 | 0.0 | 0.00 | 0.00 | 0.00 | 99 | 983.9 |
| 20260902021019 | 72 | 245 | 0.0 | 0.0 | 0.00 | 0.00 | 0.00 | 99 | 983.8 |
| 20260902020515 | 72 | 245 | 0.0 | 0.0 | 0.00 | 0.00 | 0.00 | 99 | 983.7 |
| 20260902020011 | 71 | 245 | 0.0 | 0.0 | 0.00 | 0.00 | 0.00 | 99 | 983.8 |
| 20260902015506 | 72 | 245 | 0.0 | 0.0 | 0.00 | 0.00 | 0.00 | 99 | 983.7 |
| 20260902015007 | 72 | 245 | 0.0 | 0.0 | 0.00 | 0.00 | 0.00 | 99 | 983.8 |
| 20260902014503 | 72 | 245 | 0.0 | 0.0 | 0.00 | 0.00 | 0.00 | 99 | 983.8 |
| 20260902013958 | 73 | 245 | 0.0 | 0.0 | 0.00 | 0.00 | 0.00 | 99 | 983.6 |
| 20260902013453 | 72 | 245 | 0.0 | 0.0 | 0.00 | 0.00 | 0.00 | 99 | 983.6 |
| 20260902012948 | 72 | 245 | 0.0 | 0.0 | 0.00 | 0.00 | 0.00 | 99 | 983.7 |
| 20260902012443 | 72 | 245 | 0.0 | 0.0 | 0.00 | 0.00 | 0.00 | 99 | 983.8 |
| 20260902011939 | 73 | 245 | 0.0 | 0.0 | 0.00 | 0.00 | 0.00 | 99 | 983.8 |
| 20260902011434 | 73 | 245 | 0.0 | 0.0 | 0.00 | 0.00 | 0.00 | 99 | 983.9 |
| 20260902010933 | 73 | 245 | 0.0 | 0.0 | 0.00 | 0.00 | 0.00 | 99 | 983.6 |
| 20260902010428 | 73 | 245 | 0.0 | 0.0 | 0.00 | 0.00 | 0.00 | 99 | 983.6 |
| 20260902005927 | 73 | 245 | 0.0 | 0.0 | 0.00 | 0.00 | 0.00 | 99 | 983.4 |
| 20260902005421 | 74 | 245 | 0.0 | 0.0 | 0.00 | 0.00 | 0.00 | 99 | 983.4 |
| 20260902004918 | 74 | 245 | 0.0 | 0.0 | 0.00 | 0.00 | 0.00 | 99 | 983.3 |
| 20260902004417 | 74 | 245 | 0.0 | 0.0 | 0.00 | 0.00 | 0.00 | 99 | 983.2 |
| 20260902003912 | 74 | 245 | 0.0 | 0.0 | 0.00 | 0.00 | 0.00 | 99 | 983.5 |